Regional Weather Roundup
Issued by NWS

Home | Current Version | Previous Version | Text Only | Print | Product List | Glossary Off
Versions: 1 2 3 4 5 6 7 8 9 10 11 12 13 14 15 16 17 18 19 20 21 22 23 24 25 26 27 28 29 30 31 32 33 34 35 36 37 38 39 40 41 42 43 44 45 46 47 48 49 50

000
ASUS43 KBIS 211410
RWRND

NORTH DAKOTA REGIONAL WEATHER ROUNDUP
NATIONAL WEATHER SERVICE BISMARCK ND
900 AM CDT MON APR 21 2014

NOTE: "FAIR" INDICATES FEW OR NO CLOUDS BELOW 12,000 FEET WITH NO
SIGNIFICANT WEATHER AND/OR OBSTRUCTIONS TO VISIBILITY.


NDZ001>003-009>011-017-211500-
NORTHWEST NORTH DAKOTA

CITY           SKY/WX    TMP DP  RH WIND       PRES   REMARKS
WILLISTON      CLOUDY    41  35  79 N7        30.23R
MINOT          CLOUDY    38  32  79 NW9       30.20R
MINOT AFB      CLOUDY    37  34  88 NW10      30.20R
$$

NDZ018>021-031>035-040>046-211500-
SOUTHWEST NORTH DAKOTA

CITY           SKY/WX    TMP DP  RH WIND       PRES   REMARKS
BISMARCK       CLOUDY    43  37  79 NW9       30.21R
DICKINSON      PTSUNNY   46  32  58 NW13      30.20R
GARRISON         N/A     40  35  83 N14       30.18R
HETTINGER ARPT SUNNY     44  32  62 W9        30.22R
$$

NDZ004>008-012>016-024-026-027-054-211500-
NORTHEAST NORTH DAKOTA

CITY           SKY/WX    TMP DP  RH WIND       PRES   REMARKS
GRAND FORKS    PTSUNNY   39  34  81 NW21G28   30.09R
GRND FRKS AFB  CLOUDY    40  35  82 N16G25    30.10R
DEVILS LAKE    CLOUDY    36  27  69 N18       30.13S
$$

NDZ022-023-025-028>030-036>039-047>053-211500-
SOUTHEAST NORTH DAKOTA

CITY           SKY/WX    TMP DP  RH WIND       PRES   REMARKS
FARGO          LGT RAIN  44  35  70 N25G33    30.07R
JAMESTOWN      CLOUDY    43  37  79 NW22G32   30.10R
$$




USA.gov is the U.S. government's official web portal to all federal, state and local government web resources and services.